Tracking 30918 objects as of 2-Jul-2025
HD Live streaming from Space Station
objects crossing your sky now

STARLINK-30088

Track STARLINK-30088 now!
10-day predictions
STARLINK-30088 is classified as:


NORAD ID: 57462
Int'l Code: 2023-107F
Perigee: 565.2 km
Apogee: 567.2 km
Inclination: 43.0 °
Period: 95.8 minutes
Semi major axis: 6937 km
RCS: Unknown
Launch date: July 28, 2023
Source: (TBD)
Launch site: AIR FORCE EASTERN TEST RANGE (AFETR)
Your satellite tracking list
FENGYUN 1C DEB
Track 1 satellite(s)




NASA's NSSDC Master Catalog

Two Line Element Set (TLE):
1 57462U 23107F   25182.61162909  .00000052  00000-0  18894-4 0  9990
2 57462  43.0019 263.3522 0001470 269.7762  90.2912 15.02533800107320
Source of the keplerian elements: AFSPC